Mehrabad International Airport
OIII : now visible

Airfield :











YOU CAN JOIN US ON...

 
LOGIN :

Register | Disclaimer

   EN    FR    IT 

 









Legend :    VFR   Marginal VFR   IFR   Intensive IFR   Very Intensive IFR
Visi :
Ceiling :
>= 8 km
>= 3000ft
5 to 8 km
1000 to 3000 ft
1500m to 5 km
500 to 1000 ft
800 to 1500m
200 to 500 ft
< 800m
< 200 ft
Symbols :   Thunderstorms  Fog  Heavy snow  Heavy precipitations  Wind > 20 kt







- Airport Elevation : 3962 ft
- IATA code : THR


OIII - Mehrabad International

CURRENT METAR :
  • 250030Z 02004KT CAVOK 24/04 Q1018 A3008

EXPIRED METARs :
  • 250000Z 07004KT CAVOK 24/04 Q1018 A3007 NOSIG
  • 242330Z 06004KT CAVOK 24/04 Q1018 A3007
  • 242300Z 06008KT CAVOK 24/04 Q1018 A3006 NOSIG
  • 242230Z 05006KT CAVOK 24/04 Q1018 A3006

TAF TAF OIII
Valid from the 25 at 00:00 until the 26 at 06:00 UTC


242300Z 2500/2606 30008KT 8000 FEW035 SCT100
TEMPO 2508/2515 25018KT
OIIX FIR / Asia



MET'MAP, your aeronautical weather chart ! - Copyright ORBIFLY December 2007 - Disclaimer

ORBIFLY MET'MAP TEAM :

Programming & Development : Alexandra Zaïnal
Concept & Development : Baudouin d'Aumeries
Co-Development & Prog : Marc-Olivier Méhu
Technical & hardware support : Manuel Goepfert

Contact : metmap@orbifly.com




SOURCES & CREDITS :

   NOAA       Earth
Advisory